Temperature
1 1 1 1 0 -0 -2 -3 -4 -4 -3 -3 -3 -4 -5 -5 -6 -6 -6 -6 -6 -6 -6 -6 -6 -6 -6 -6 -6 -5 -5 -5 -5 -5 -4 -4 -3 -3
1 1 0 -0 -1 -2 -3 -4 -5 -5 -5 -4 -4 -5 -5 -6 -6 -6 -6 -6 -6 -6 -6 -6 -7 -7 -6 -6 -6 -6 -6 -6 -6 -5 -5 -4 -4 -3
0 0 -0 -1 -2 -3 -4 -5 -5 -6 -6 -5 -5 -6 -6 -6 -6 -6 -6 -7 -7 -7 -7 -7 -7 -7 -7 -7 -7 -7 -6 -6 -6 -6 -5 -5 -4 -4
-1 -1 -1 -2 -3 -4 -5 -6 -6 -6 -6 -6 -6 -6 -6 -6 -7 -7 -7 -7 -7 -7 -7 -7 -7 -7 -7 -7 -7 -7 -7 -7 -6 -6 -6 -6 -5 -5
-1 -2 -3 -4 -5 -6 -6 -7 -7 -7 -7 -7 -7 -7 -6 -7 -7 -7 -7 -7 -7 -8 -8 -8 -8 -8 -8 -7 -7 -7 -7 -7 -7 -7 -7 -7 -6 -6
-2 -3 -4 -5 -6 -7 -7 -7 -7 -7 -7 -7 -7 -7 -7 -7 -7 -7 -7 -8 -8 -8 -8 -8 -8 -8 -8 -8 -8 -8 -8 -8 -8 -8 -7 -7 -7 -7
-3 -4 -6 -7 -7 -8 -8 -8 -8 -8 -8 -7 -7 -7 -7 -7 -7 -8 -8 -8 -8 -8 -8 -8 -8 -8 -8 -8 -8 -8 -8 -8 -8 -8 -8 -7 -7 -7
-4 -5 -7 -7 -8 -8 -8 -8 -8 -8 -8 -8 -8 -8 -8 -8 -8 -9 -9 -9 -9 -8 -8 -8 -8 -8 -8 -8 -8 -8 -8 -8 -8 -8 -8 -8 -7 -7
-5 -7 -8 -8 -8 -9 -9 -8 -8 -8 -8 -9 -9 -9 -9 -9 -9 -9 -9 -9 -9 -9 -9 -9 -8 -8 -8 -8 -8 -8 -8 -8 -8 -8 -8 -8 -7 -7
-7 -8 -8 -8 -9 -9 -9 -8 -8 -9 -9 -9 -9 -9 -9 -9 -9 -10 -10 -10 -10 -9 -9 -9 -8 -8 -8 -8 -7 -6 -7 -7 -7 -7 -7 -7 -7 -7
-8 -8 -8 -9 -9 -9 -9 -9 -9 -9 -9 -10 -9 -9 -10 -10 -10 -10 -10 -10 -10 -9 -9 -9 -9 -9 -9 -8 -6 -6 -6 -6 -6 -6 -6 -7 -7 -7
-8 -8 -8 -9 -9 -9 -9 -9 -10 -10 -10 -10 -10 -10 -9 -9 -9 -10 -10 -10 -11 -10 -9 -10 -10 -10 -9 -8 -7 -6 -6 -5 -5 -6 -5 -6 -6 -6
-8 -8 -9 -9 -9 -9 -10 -10 -10 -10 -10 -10 -10 -9 -9 -9 -9 -9 -9 -10 -11 -10 -9 -10 -10 -10 -10 -9 -8 -6 -6 -6 -6 -5 -5 -5 -6 -6
-9 -9 -9 -9 -10 -10 -10 -10 -10 -10 -10 -10 -10 -10 -9 -8 -8 -8 -8 -8 -9 -9 -8 -9 -10 -10 -10 -10 -9 -7 -5 -5 -5 -5 -5 -6 -6 -6
-9 -9 -10 -10 -10 -9 -9 -10 -10 -10 -10 -11 -11 -10 -9 -8 -8 -8 -8 -8 -8 -7 -8 -8 -9 -9 -10 -9 -9 -8 -7 -6 -5 -6 -6 -6 -6 -6
-10 -10 -10 -10 -10 -10 -10 -9 -10 -10 -11 -11 -10 -9 -9 -8 -8 -9 -9 -9 -8 -7 -7 -8 -8 -9 -9 -9 -8 -7 -6 -7 -6 -6 -6 -6 -6 -5
-10 -10 -10 -10 -10 -10 -10 -10 -10 -10 -10 -9 -9 -9 -8 -8 -8 -8 -9 -9 -9 -9 -8 -7 -8 -9 -8 -8 -7 -6 -6 -6 -6 -6 -6 -6 -5 -4
-11 -11 -11 -11 -11 -10 -10 -10 -9 -9 -9 -9 -8 -9 -9 -9 -9 -8 -8 -8 -9 -9 -9 -9 -9 -8 -8 -7 -6 -6 -6 -6 -6 -6 -6 -6 -5 -3
-11 -11 -11 -11 -11 -10 -10 -10 -9 -9 -8 -8 -8 -9 -9 -9 -9 -8 -8 -8 -8 -8 -9 -9 -9 -8 -8 -7 -7 -5 -6 -6 -6 -6 -6 -5 -5 -4
-11 -11 -11 -11 -10 -10 -10 -10 -9 -8 -8 -8 -8 -8 -8 -9 -9 -8 -8 -8 -8 -9 -9 -9 -8 -8 -8 -8 -8 -5 -5 -5 -6 -6 -6 -5 -4 -3
-11 -11 -10 -10 -10 -10 -10 -9 -9 -8 -8 -8 -8 -8 -8 -8 -8 -8 -8 -8 -8 -9 -9 -9 -8 -8 -8 -8 -8 -7 -5 -5 -5 -6 -6 -6 -5 -4
-11 -11 -10 -10 -10 -10 -9 -9 -8 -8 -8 -8 -8 -8 -8 -8 -8 -8 -8 -8 -8 -8 -9 -8 -8 -7 -8 -8 -8 -7 -6 -5 -5 -5 -5 -5 -5 -5
-11 -10 -10 -10 -10 -10 -9 -9 -8 -8 -8 -8 -8 -7 -7 -7 -7 -7 -7 -7 -8 -8 -8 -8 -8 -7 -7 -7 -7 -7 -6 -5 -6 -6 -5 -5 -4 -4
Wind_Speed
5 6 6 6 7 8 8 9 9 12 14 12 7 9 14 16 19 20 21 24 27 29 31 32 32 34 35 36 37 37 37 37 37 38 39 39 39 39
5 7 8 7 7 8 9 10 11 13 15 12 14 16 16 16 21 22 22 26 28 29 30 31 33 34 35 36 36 36 36 36 36 37 38 39 39 39
6 7 9 10 9 8 9 9 11 12 17 18 15 16 19 19 18 19 20 21 22 28 30 33 34 34 34 34 35 35 35 35 35 35 36 36 36 36
7 8 9 8 10 9 9 10 11 13 16 21 19 17 20 20 18 18 17 19 21 26 30 31 33 33 34 34 34 35 36 35 35 35 35 35 35 35
8 9 10 10 10 10 11 12 12 13 15 18 20 18 17 16 18 20 20 17 18 21 25 28 30 32 33 34 35 35 35 35 35 34 34 34 35 35
9 9 10 10 11 13 12 14 14 16 17 17 18 17 16 18 18 17 17 16 16 16 21 23 27 30 31 32 33 34 34 34 34 34 33 33 33 34
10 10 10 11 14 14 14 15 16 16 16 16 16 17 18 18 17 16 17 18 18 16 17 17 18 18 20 25 27 29 31 32 33 34 34 34 34 34
11 11 11 12 14 18 20 21 21 19 18 16 17 19 20 19 17 17 17 18 19 15 16 19 18 19 18 17 25 31 33 34 34 34 34 34 34 35
10 11 11 11 15 14 18 21 20 21 22 20 20 19 20 19 19 20 19 19 20 18 18 20 18 19 18 19 30 32 33 33 33 33 33 33 33 34
10 12 13 13 13 16 18 17 16 18 19 16 17 19 18 19 20 20 20 19 19 16 17 19 19 18 18 18 27 30 30 30 30 31 32 32 32 33
11 12 13 13 17 21 18 17 19 17 17 20 22 22 25 26 21 14 15 15 17 17 15 14 16 18 19 18 18 22 24 27 29 31 31 31 32 31
11 12 13 14 19 21 17 18 18 17 17 18 18 19 18 18 19 14 13 13 15 12 11 10 14 14 11 11 13 16 19 24 27 27 27 29 30 22
11 11 11 17 21 22 21 16 17 19 18 16 15 14 13 12 12 12 12 12 14 14 13 12 13 14 12 14 18 18 16 15 16 19 23 27 28 24
12 11 13 21 22 22 17 17 21 19 12 12 12 13 12 13 13 14 16 16 15 18 19 18 15 15 16 18 17 16 16 16 16 16 16 22 25 29
12 16 19 21 20 15 15 18 16 11 10 11 13 13 13 14 14 14 16 15 17 17 16 17 16 15 15 17 18 19 19 18 14 13 16 18 17 17
12 15 18 17 14 14 14 12 10 10 11 12 13 13 13 13 13 13 13 14 13 15 14 14 15 17 16 18 17 19 17 13 15 17 18 19 17 15
15 12 10 10 10 10 10 10 11 11 11 11 12 13 13 13 14 13 12 13 13 15 16 14 14 13 16 17 17 17 16 16 16 17 18 20 18 15
14 9 9 9 10 11 11 12 12 12 12 12 12 12 13 13 14 14 13 13 13 14 15 15 15 15 14 11 13 14 14 15 17 17 17 17 18 16
9 8 8 9 10 11 11 12 13 13 12 12 12 13 13 13 13 14 13 13 13 14 14 14 14 13 15 17 10 10 14 17 17 16 15 16 16 16
7 8 9 10 10 11 12 12 13 13 12 12 13 13 12 13 13 14 13 14 14 15 15 13 13 13 13 14 13 17 19 16 14 15 15 16 14 17
8 8 9 10 11 11 12 13 13 13 14 13 13 13 12 12 13 13 14 18 16 14 14 14 14 18 14 11 12 13 12 14 15 14 12 13 14 13
9 9 10 11 11 12 12 12 13 13 14 12 13 13 12 12 13 15 14 14 13 13 15 14 14 13 11 12 14 15 16 16 14 14 13 13 10 9
10 10 11 11 11 11 11 13 14 13 13 13 13 13 13 13 13 13 13 13 13 14 14 14 13 12 12 12 13 14 16 16 13 12 12 17 20 19
Wind_Direction
287 285 283 284 281 280 281 283 290 299 304 304 300 302 305 301 299 296 293 292 293 293 292 292 293 293 293 292 291 290 289 287 286 284 282 280 277 274
293 293 293 288 287 284 280 279 278 284 289 291 299 301 304 298 294 292 292 293 291 290 290 291 291 291 292 292 291 289 288 286 285 282 279 276 273 270
294 296 296 296 292 289 288 286 285 286 289 295 299 302 301 297 297 299 299 296 292 291 292 292 292 292 291 289 289 288 287 286 284 281 279 277 274 272
301 300 296 297 294 294 294 293 292 290 291 297 301 301 300 301 301 301 299 294 292 294 295 293 292 291 289 288 288 287 286 285 284 283 281 279 278 276
297 301 301 300 299 300 300 297 295 294 292 294 297 299 300 303 304 301 300 299 297 296 296 293 291 290 289 289 288 287 286 285 284 282 280 278 277 275
289 295 296 296 299 302 301 299 300 300 297 294 295 300 304 305 304 305 305 303 301 301 296 293 291 291 290 289 287 286 285 284 283 281 278 276 274 272
289 292 292 296 298 300 301 301 303 299 297 296 300 306 304 306 306 308 305 305 302 302 299 297 296 293 292 289 286 284 284 283 282 280 278 276 273 270
295 299 300 296 297 302 303 301 298 296 299 302 303 301 302 304 307 306 306 305 304 307 303 299 298 294 292 289 288 288 287 286 284 282 280 277 274 271
298 299 299 302 307 305 301 299 298 296 295 297 297 296 299 304 305 303 302 300 299 302 303 297 298 295 295 292 293 291 289 288 285 283 280 277 273 269
294 298 303 305 305 306 306 306 306 301 299 300 295 295 296 298 299 299 298 296 294 293 294 295 299 299 300 296 294 291 289 289 288 286 283 280 275 270
302 302 302 300 306 311 313 311 308 306 305 301 297 294 295 297 296 295 294 295 298 300 299 293 299 305 301 295 293 294 294 292 289 287 284 281 278 273
306 304 303 306 312 317 317 313 309 310 309 306 304 301 298 296 295 290 292 294 296 300 297 298 301 311 307 295 299 302 300 295 292 290 288 284 280 275
306 307 308 314 317 318 317 309 306 308 307 307 305 302 301 300 300 299 295 289 289 285 289 298 296 296 289 293 301 300 296 295 297 295 291 286 282 277
306 308 312 317 319 317 312 307 308 310 306 306 303 302 304 304 302 300 296 289 279 278 283 286 285 287 290 291 296 299 299 299 297 293 289 287 287 282
307 311 314 316 318 313 307 308 311 308 307 305 303 303 303 300 299 299 298 295 290 283 279 278 279 283 282 284 289 294 299 300 293 293 297 296 292 286
315 313 313 311 309 305 307 308 309 306 307 303 302 302 302 302 301 303 304 307 303 299 292 283 280 281 283 286 287 289 291 291 298 304 303 300 297 289
320 310 308 312 314 315 315 315 315 313 312 308 304 304 304 305 304 305 303 303 298 301 306 307 298 288 281 282 285 285 291 300 305 307 308 307 306 303
317 306 309 313 315 318 318 316 315 313 311 308 304 302 303 304 304 305 304 300 298 300 303 307 309 310 307 293 255 277 295 305 309 308 307 310 313 315
311 310 312 314 316 314 311 308 308 310 309 305 303 303 302 302 303 303 302 301 300 302 304 305 308 310 314 316 305 290 305 308 310 312 314 315 313 313
316 314 314 314 313 309 307 307 307 309 308 307 305 303 302 302 301 300 300 299 301 303 305 307 307 311 312 306 301 303 304 307 316 318 320 319 316 314
319 316 312 310 308 305 304 304 304 304 304 305 303 301 301 300 298 297 297 298 301 303 306 307 305 306 304 299 298 306 309 310 312 318 324 328 333 334
315 312 309 306 305 302 301 302 304 304 305 303 302 301 299 296 294 295 297 299 301 303 305 305 307 310 313 309 308 309 313 317 320 321 325 334 337 332
311 309 306 303 301 299 300 301 303 302 302 301 299 298 297 297 296 295 296 297 301 307 313 314 316 320 321 316 315 316 319 324 330 335 335 338 340 343
Height
1480 1477 1474 1471 1467 1463 1460 1456 1452 1443 1436 1434 1432 1428 1425 1421 1416 1411 1407 1403 1399 1395 1391 1387 1383 1378 1374 1371 1368 1365 1362 1360 1357 1355 1354 1353 1352 1351
1475 1472 1469 1465 1461 1457 1454 1451 1447 1441 1432 1427 1426 1423 1418 1414 1410 1406 1401 1396 1391 1386 1382 1377 1373 1369 1364 1360 1356 1353 1350 1347 1345 1343 1341 1340 1339 1338
1470 1467 1463 1459 1455 1452 1448 1444 1441 1436 1428 1420 1419 1415 1411 1407 1403 1399 1394 1388 1382 1377 1372 1367 1362 1358 1353 1350 1346 1342 1338 1335 1332 1330 1328 1327 1325 1325
1465 1461 1458 1454 1450 1446 1442 1438 1435 1431 1425 1416 1411 1408 1404 1400 1395 1390 1386 1381 1374 1368 1363 1357 1351 1346 1342 1338 1334 1330 1326 1323 1320 1318 1316 1314 1313 1312
1459 1456 1452 1448 1444 1441 1437 1433 1430 1426 1421 1414 1406 1402 1397 1393 1388 1383 1378 1372 1366 1359 1353 1347 1341 1336 1331 1326 1322 1318 1313 1310 1307 1304 1302 1301 1299 1299
1454 1450 1446 1443 1439 1436 1432 1429 1425 1421 1416 1410 1402 1396 1391 1387 1383 1376 1369 1363 1357 1351 1344 1338 1332 1326 1320 1315 1310 1305 1300 1296 1293 1290 1288 1286 1285 1285
1449 1445 1441 1437 1434 1431 1428 1424 1421 1416 1410 1405 1398 1392 1387 1382 1377 1370 1363 1355 1349 1345 1336 1329 1324 1316 1310 1304 1298 1293 1288 1284 1280 1277 1275 1273 1272 1271
1443 1440 1437 1433 1430 1426 1423 1419 1416 1411 1405 1400 1394 1388 1382 1377 1371 1365 1358 1350 1340 1337 1331 1320 1316 1307 1300 1294 1288 1283 1278 1273 1269 1265 1262 1260 1258 1257
1438 1435 1432 1429 1425 1421 1417 1413 1409 1405 1401 1396 1389 1383 1377 1372 1366 1359 1353 1346 1337 1331 1324 1312 1306 1299 1292 1284 1278 1272 1267 1262 1257 1253 1250 1248 1246 1244
1434 1431 1427 1424 1420 1416 1411 1406 1402 1398 1394 1389 1383 1377 1372 1366 1361 1355 1347 1339 1331 1325 1320 1309 1299 1291 1283 1275 1268 1263 1257 1252 1247 1242 1239 1236 1234 1232
1429 1426 1422 1419 1415 1411 1406 1400 1394 1390 1386 1381 1376 1370 1364 1359 1354 1348 1341 1334 1324 1317 1313 1305 1295 1285 1274 1266 1261 1256 1250 1245 1239 1233 1228 1224 1221 1219
1425 1421 1417 1414 1410 1405 1400 1394 1388 1383 1378 1372 1368 1362 1357 1352 1347 1343 1337 1329 1320 1311 1304 1300 1291 1284 1269 1259 1256 1251 1243 1237 1231 1225 1220 1215 1210 1207
1420 1417 1413 1409 1404 1399 1394 1389 1383 1378 1372 1366 1360 1355 1350 1346 1342 1337 1331 1324 1315 1306 1300 1295 1286 1281 1275 1259 1248 1243 1238 1231 1224 1217 1210 1205 1200 1196
1416 1412 1408 1403 1398 1393 1387 1382 1377 1373 1366 1361 1355 1350 1345 1340 1335 1329 1323 1316 1309 1302 1294 1289 1282 1275 1268 1258 1247 1236 1231 1225 1217 1208 1201 1193 1187 1182
1412 1408 1402 1397 1391 1386 1382 1377 1373 1367 1361 1356 1350 1345 1340 1334 1328 1321 1315 1308 1302 1296 1289 1283 1277 1270 1264 1255 1244 1234 1224 1216 1209 1202 1193 1184 1175 1168
1407 1402 1397 1391 1386 1382 1378 1373 1368 1363 1358 1352 1346 1340 1334 1328 1322 1316 1308 1302 1294 1287 1283 1277 1271 1264 1257 1249 1241 1229 1222 1214 1204 1196 1185 1174 1165 1158
1402 1397 1392 1388 1383 1378 1374 1370 1365 1359 1354 1348 1342 1335 1329 1323 1317 1311 1305 1298 1290 1282 1274 1269 1264 1259 1252 1245 1235 1226 1218 1210 1201 1191 1179 1167 1157 1150
1397 1392 1388 1384 1379 1375 1370 1365 1360 1355 1349 1344 1338 1332 1326 1319 1313 1307 1301 1294 1287 1279 1272 1264 1258 1251 1244 1237 1231 1223 1215 1206 1195 1186 1177 1166 1153 1144
1393 1389 1385 1380 1376 1372 1367 1361 1356 1351 1346 1340 1334 1328 1322 1316 1310 1303 1297 1291 1283 1276 1269 1263 1257 1251 1243 1233 1225 1221 1213 1202 1192 1182 1173 1164 1152 1141
1389 1385 1381 1377 1373 1368 1364 1358 1353 1347 1342 1336 1330 1325 1319 1313 1306 1300 1294 1287 1280 1273 1266 1261 1256 1250 1243 1235 1224 1215 1210 1202 1192 1181 1171 1160 1150 1141
1386 1382 1378 1374 1370 1365 1360 1355 1350 1344 1339 1333 1327 1321 1316 1310 1304 1297 1291 1285 1278 1271 1265 1258 1252 1247 1240 1232 1224 1215 1208 1201 1193 1183 1172 1162 1151 1140
1383 1379 1375 1372 1367 1363 1357 1352 1346 1341 1335 1330 1324 1319 1313 1307 1301 1294 1288 1282 1276 1270 1263 1256 1249 1244 1238 1231 1223 1214 1206 1198 1190 1182 1175 1168 1160 1150
1380 1376 1373 1369 1365 1360 1354 1348 1343 1338 1333 1327 1321 1316 1310 1304 1298 1292 1286 1280 1274 1268 1262 1254 1248 1242 1237 1230 1223 1215 1207 1198 1189 1181 1174 1167 1160 1154